Regional Weather Roundup
Issued by NWS

Home | Current Version | Previous Version | Text Only | Print | Product List | Glossary Off
Versions: 1 2 3 4 5 6 7 8 9 10 11 12 13 14 15 16 17 18 19 20 21 22 23 24 25 26 27 28 29 30 31 32 33 34 35 36 37 38 39 40 41 42 43 44 45 46 47 48 49 50

000
ASUS43 KMKX 262100
RWRWI

WISCONSIN REGIONAL WEATHER ROUNDUP
NATIONAL WEATHER SERVICE MILWAUKEE/SULLIVAN WI
400 PM CDT FRI MAY 26 2017

NOTE: "FAIR" INDICATES FEW OR NO CLOUDS BELOW 12,000 FEET WITH NO
SIGNIFICANT WEATHER AND/OR OBSTRUCTIONS TO VISIBILITY.

WIZ001-002-006>008-014>016-023>028-262200-
NORTHWEST WISCONSIN

CITY           SKY/WX    TMP DP  RH WIND       PRES   REMARKS
SUPERIOR ARPT  NOT AVBL
ASHLAND        CLOUDY    69  55  60 S12       29.73F
HAYWARD        MOSUNNY   73  51  46 SW13G24   29.74F
SIREN          MOSUNNY   74  54  49 S8        29.73S
CUMBERLAND     CLOUDY    70  54  56 S9        29.75S
RICE LAKE      PTSUNNY   72  53  51 S13       29.76F
CHETEK         PTSUNNY   73  56  54 S9        29.76S
LADYSMITH      CLOUDY    69  55  60 S7        29.79S
EAU CLAIRE     NOT AVBL
MENOMONIE      PTSUNNY   72  56  57 S13       29.76S
NEW RICHMOND   MOSUNNY   74  55  52 S12G20    29.75S
OSCEOLA        PTSUNNY   77  57  49 S9G17     29.76S
$$

WIZ003>005-009-010-017-018-262200-
NORTH CENTRAL WISCONSIN

CITY           SKY/WX    TMP DP  RH WIND       PRES   REMARKS
MANITOWISH WTR CLOUDY    67  55  65 S12       29.80R
ARBOR VITAE    CLOUDY    67  55  65 S8        29.80S
WOODRUFF       CLOUDY    67  55  65 S8        29.80S
RHINELANDER    CLOUDY    69  52  54 S9        29.81F
EAGLE RIVER    PTSUNNY   64  56  76 CALM      29.81S
LAND O LAKES   PTSUNNY   69  53  58 S8        29.82S
PHILLIPS       CLOUDY    67  55  66 S8        29.78F
TOMAHAWK       CLOUDY    69  54  57 S3        29.80F
MEDFORD        CLOUDY    69  56  63 S10       29.79F
MERRILL        CLOUDY    71  55  56 SE8       29.80F
$$

WIZ029-030-035-036-043>047-262200-
CENTRAL WISCONSIN

CITY           SKY/WX    TMP DP  RH WIND       PRES   REMARKS
WAUSAU         CLOUDY    70  55  59 S9        29.79F
MOSINEE        PTSUNNY   68  55  64 S10       29.82F
MARSHFIELD     PTSUNNY   72  51  47 S10G22    29.79S
STEVENS POINT  MOSUNNY   70  52  53 S10       29.81F
WAUPACA        CLOUDY    73  57  57 E6        29.81F
WAUTOMA        CLOUDY    71  55  56 S9        29.82S
WISC RAPIDS    CLOUDY    73  54  51 SW12      29.81F
CAMP DOUGLAS   NOT AVBL
$$

WIZ011>013-019>022-031-037>040-048>050-262200-
NORTHEAST WISCONSIN

CITY           SKY/WX    TMP DP  RH WIND       PRES   REMARKS
ANTIGO         CLOUDY    68  54  60 S10       29.83S
SHAWANO        CLOUDY    74  53  49 SW7       29.82S
OCONTO         CLOUDY    65  54  65 SE7       29.84S
STURGEON BAY   CLOUDY    64  52  64 S7        29.85F
GREEN BAY      MOSUNNY   69  59  70 S12       29.83S
MANITOWOC      NOT AVBL
APPLETON       PTSUNNY   68  54  60 SE8       29.82F
CLINTONVILLE   CLOUDY    72  54  53 S9        29.82S
OSHKOSH        CLOUDY    69  56  62 S10       29.81F
$$

WIZ032>034-041-042-053>061-262200-
SOUTHWEST WISCONSIN

CITY           SKY/WX    TMP DP  RH WIND       PRES   REMARKS
LA CROSSE      MOSUNNY   72  57  59 S12       29.79S
SPARTA         PTSUNNY   70  55  58 S12G17    29.81S
VIROQUA        CLOUDY    67  55  64 SW10      29.82S
BOSCOBEL       CLOUDY    68  57  68 VRB6      29.82F
PRAIRIE DU CHI CLOUDY    66  56  68 E6        29.81S
PLATTEVILLE    CLOUDY    63  61  95 E8        29.82F
$$

WIZ056-057-062-063-064-067-068-262200-
SOUTH CENTRAL WISCONSIN

CITY           SKY/WX    TMP DP  RH WIND       PRES   REMARKS
REEDSBURG      CLOUDY    63  55  75 S9        29.82F
BARABOO/DELLS  CLOUDY    64  55  73 SW9       29.84R
LONE ROCK      NOT AVBL
MINERAL POINT  CLOUDY    61  59  94 E3        29.83S
MADISON        LGT RAIN  62  60  93 CALM      29.82S FOG
MIDDLETON      CLOUDY    60  58  93 NW3       29.83S
WATERTOWN      LGT RAIN  64  57  76 S7        29.84S
MONROE         RAIN      61  55  82 E8        29.82S
JANESVILLE     RAIN      63  63 100 E13       29.83S FOG
$$

WIZ051-052-058>065-066-070>072-262200-
SOUTHEAST WISCONSIN

CITY           SKY/WX    TMP DP  RH WIND       PRES   REMARKS
MILWAUKEE      LGT RAIN  61  54  77 SE6       29.86S
WAUKESHA       MOSUNNY   63  52  67 SE7       29.85F
MILWAUKEE/TIMM PTSUNNY   63  48  59 E6        29.85F
RACINE         CLOUDY    60  51  72 SE5       29.87S
KENOSHA        LGT RAIN  60  52  74 E7        29.85F
FOND DU LAC    CLOUDY    69  53  56 SE9       29.83F
SHEBOYGAN      CLOUDY    63  55  75 S6        29.85F
WEST BEND      CLOUDY    63  54  72 SE6       29.85S
JUNEAU         CLOUDY    67  55  66 SE6       29.85S
$$

LSZ147-162-262200-
LAKE SUPERIOR

STATION/POSITION TIME  TEMP    WIND        PRES    WAVE
                       AIR SEA DIR/SP/G            HT/PER
                 (UTC) (F)     (DEG/KT/KT) (MB)    (FT/S)
W MID LAKE BUOY  1950   40 37  350/  6/  8 1008.5F   0
DEVILS ISLAND    2000   52     120/  4/  6 1007.1F
PORT WING        1940   43      20/ 13/ 16 1006.4F
SAXON HARBOR     2040   53     190/  2/  7 1006.8F
$$

LMZ867-665-643>646-262200-
LAKE MICHIGAN

STATION/POSITION TIME  TEMP    WIND        PRES    WAVE
                       AIR SEA DIR/SP/G            HT/PER
                 (UTC) (F)     (DEG/KT/KT) (MB)    (FT/S)
CHAMBERS ISLAND  2040   60     340/  4/  4 1010.5S
N MID LAKE BUOY  1950   43 42  200/  6/  6 1012.1F   0
NORTHPORT PIER   2040   50     150/ 10/ 11 1010.8S
KEWAUNEE LAKESHO 2030   49     120/  3/  4 1010.9F
SHEBOYGAN LAKESH 2000   49     170/  6/  7 1011.1S
PORT WASHINGTON  2030   52     120/  2/  3 1011.9F
ATWATER BUOY     1909   46     140/  2/  2 1011.8R
MILWAUKEE LAKESH 2030   49      70/  2/  3   N/A
S MID LAKE BUOY  1950   49 48   20/  2/  2 1011.4F   1
KENOSHA   LAKESH 2000   50        CALM     1011.2
$$

TC  - TEMPERATURE IN CELSIUS
VSB - VISIBILITY IN STATUTE MILES
WCI - WIND CHILL INDEX
HX  - HEAT INDEX





USA.gov is the U.S. government's official web portal to all federal, state and local government web resources and services.